179  
NZUS01 KOTX 260425  
RWROTX  
 
EASTERN WASHINGTON/NORTHERN IDAHO ROUNDUP  
NATIONAL WEATHER SERVICE, SPOKANE WA  
900 PM PDT MON MAR 25 2019  
 
NOTE: "FAIR" INDICATED FEW OR NO CLOUDS BELOW 12,000 FEET WITH NO  
SIGNIFICANT WEATHER AND/OR S TO VISIBILITY
.  
   
..NORTHEAST WASHINGTON AND NORTHERN IDAHO PANHANDLE
 
 
 
CITY SKY/WX TMP DP RH WIND PRES REMARKS
 
SPOKANE INTL CLOUDY 50 29 44 SE6 29.89S  
SPOKANE DOWNTO CLOUDY 50 32 50 CALM 29.89S  
COEUR D ALENE CLOUDY 44 33 65 E7 29.91  
DEER PARK CLOUDY 45 29 53 NE3 29.90S  
SANDPOINT CLOUDY 41 30 65 CALM 29.92S  
BONNERS FERRY FAIR 39 32 75 CALM 29.93S  
   
..SOUTHEAST WASHINGTON AND SOUTHERN IDAHO PANHANDLE
 
 
 
CITY SKY/WX TMP DP RH WIND PRES REMARKS
 
WALLA WALLA CLOUDY 52 43 71 S9 29.95R  
PULLMAN/MOSCOW CLOUDY 50 35 56 SW8 29.94R  
LEWISTON CLOUDY 54 35 48 SW5 29.90R  
LOWELL N/A 43 37 79 N6 29.96R  
GRANGEVILLE FAIR 45 32 61 CALM 29.93S  
   
..COLUMBIA BASIN
 
 
 
CITY SKY/WX TMP DP RH WIND PRES REMARKS
 
EPHRATA LGT RAIN 50 44 80 W7 29.89R  
MOSES LAKE LGT RAIN 50 43 77 NW5 29.89R  
PASCO CLOUDY 50 46 86 CALM 29.91R  
RICHLAND CLOUDY 49 45 87 S3 29.91R  
HERMISTON CLOUDY 53 42 66 SE13 29.89S  
PENDLETON CLOUDY 49 41 74 E13 29.90F  
   
..EAST SLOPES CASCADES
 
 
 
CITY SKY/WX TMP DP RH WIND PRES REMARKS
 
THE DALLES MOCLDY 47 39 74 W6 29.98R  
YAKIMA CLOUDY 46 41 82 W9 29.92R  
ELLENSBURG CLOUDY 45 41 86 W5 29.89R  
STAMPEDE PASS LGT SNOW 34 31 88 VRB6 29.88R FOG WCI 29  
WENATCHEE CLOUDY 45 42 89 SW5 29.89F  
WINTHROP LGT RAIN 39 37 93 W3 29.91S  
OMAK CLOUDY 48 39 71 CALM 29.88F  
SUNNYSIDE LGT RAIN 47 41 80 W16G22 29.96R  
   
..SOUTHERN BRITISH COLUMBIA
 
 
 
CITY SKY/WX TMP DP RH WIND PRES REMARKS
 
PENTICTON MOCLDY 45 36 70 NE3 29.88F  
CASTLEGAR CLOUDY 45 37 76 CALM 29.93  
CRANBROOK MOCLDY 39 28 65 VRB2 29.95S  
OSOYOOS N/A 48 39 71 N1 N/A  
CRESTON N/A 45 34 65 N1 N/A  
   
..WESTERN MONTANA
 
 
 
CITY SKY/WX TMP DP RH WIND PRES REMARKS
 
KALISPELL CLOUDY 36 27 69 CALM 29.96F  
MISSOULA CLOUDY 44 26 49 S9 29.98S  
   
..NEIGHBORING CITIES
 
 
 
CITY SKY/WX TMP DP RH WIND PRES REMARKS
 
SEATTLE LGT RAIN 48 43 82 SW14G25 29.95R  
PORTLAND CLOUDY 48 44 86 CALM 30.02R  
BOISE CLOUDY 55 29 36 E16 29.97S  
GREAT FALLS CLOUDY 44 30 57 S15 30.00S  
CALGARY FOG 36 34 93 VRB2 29.89S VSB 1/8  
 
CLICK HERE TO GO TO PREVIOUS BULLETINS.

The Nexlab WA Page
The Nexlab ID Page Main Text Page